• In Russia
  • List of Countries
  • For 7 days
  • Water Temperature
  • Weather Map
  • Weather Widgets
  • user-avatar
    Login

    Hourly Weather Baraki Barak

    Today, 18 November, Monday

    Time Temperature Precipitation Wind Pressure Humidity
    00:00 +7°C° 0 mm 1 mps 600 mmHg 58%
    01:00 +6°C° 0 mm 1 mps 599 mmHg 58%
    02:00 +6°C° 0 mm 1 mps 599 mmHg 58%
    03:00 +5°C° 0 mm 1 mps 599 mmHg 57%
    04:00 +5°C° 0 mm 1 mps 598 mmHg 56%
    05:00 +4°C° 0 mm 1 mps 598 mmHg 55%
    06:00 +5°C° 0 mm 1 mps 598 mmHg 53%
    07:00 +5°C° 0 mm 1 mps 599 mmHg 51%
    08:00 +5°C° 0 mm 1 mps 599 mmHg 48%
    09:00 +6°C° 0 mm 1 mps 599 mmHg 42%
    10:00 +7°C° 0 mm 1 mps 600 mmHg 36%
    11:00 +9°C° 0 mm 1 mps 600 mmHg 31%
    12:00 +10°C° 0 mm 1 mps 600 mmHg 28%
    13:00 +11°C° 0 mm 1 mps 600 mmHg 26%
    14:00 +12°C° 0 mm 1 mps 600 mmHg 23%
    15:00 +11°C° 0 mm 1 mps 599 mmHg 26%
    16:00 +11°C° 0 mm 1 mps 599 mmHg 28%
    17:00 +9°C° 0 mm 0 mps 599 mmHg 31%
    18:00 +9°C° 0 mm 0 mps 599 mmHg 32%
    19:00 +8°C° 0 mm 0 mps 599 mmHg 33%
    20:00 +7°C° 0 mm 0 mps 599 mmHg 34%
    21:00 +8°C° 0 mm 1 mps 599 mmHg 34%
    22:00 +8°C° 0 mm 1 mps 598 mmHg 35%
    23:00 +7°C° 0 mm 1 mps 598 mmHg 35%

    Tomorrow, 19 November, Tuesday

    Time Temperature Precipitation Wind Pressure Humidity
    00:00 +7°C° 0 mm 1 mps 597 mmHg 36%
    01:00 +6°C° 0 mm 1 mps 597 mmHg 36%
    02:00 +6°C° 0 mm 1 mps 597 mmHg 37%
    03:00 +5°C° 0 mm 1 mps 596 mmHg 36%
    04:00 +5°C° 0 mm 1 mps 596 mmHg 36%
    05:00 +5°C° 0 mm 1 mps 595 mmHg 36%
    06:00 +5°C° 0 mm 1 mps 596 mmHg 35%
    07:00 +5°C° 0 mm 1 mps 596 mmHg 34%
    08:00 +6°C° 0 mm 1 mps 597 mmHg 33%
    09:00 +7°C° 0 mm 1 mps 597 mmHg 29%
    10:00 +9°C° 0 mm 1 mps 598 mmHg 24%
    11:00 +10°C° 0 mm 1 mps 598 mmHg 20%
    12:00 +11°C° 0 mm 1 mps 598 mmHg 19%
    13:00 +12°C° 0 mm 1 mps 598 mmHg 18%
    14:00 +13°C° 0 mm 1 mps 598 mmHg 17%
    15:00 +11°C° 0 mm 0 mps 597 mmHg 21%
    16:00 +10°C° 0 mm 0 mps 597 mmHg 25%
    17:00 +10°C° 0 mm 0 mps 597 mmHg 29%
    18:00 +9°C° 0 mm 0 mps 597 mmHg 30%
    19:00 +8°C° 0 mm 0 mps 597 mmHg 31%
    20:00 +7°C° 0 mm 0 mps 596 mmHg 32%
    21:00 +7°C° 0 mm 0 mps 596 mmHg 32%
    22:00 +7°C° 0 mm 0 mps 596 mmHg 31%
    23:00 +6°C° 0 mm 0 mps 596 mmHg 31%

    Day after tomorrow, 20 November, Wednesday

    Time Temperature Precipitation Wind Pressure Humidity
    00:00 +6°C° 0 mm 0 mps 596 mmHg 32%
    01:00 +5°C° 0 mm 0 mps 596 mmHg 32%
    02:00 +5°C° 0 mm 0 mps 595 mmHg 32%
    03:00 +5°C° 0 mm 0 mps 595 mmHg 33%
    04:00 +4°C° 0 mm 0 mps 595 mmHg 33%
    05:00 +4°C° 0 mm 0 mps 595 mmHg 33%
    06:00 +5°C° 0 mm 0 mps 595 mmHg 33%
    07:00 +5°C° 0 mm 0 mps 595 mmHg 33%
    08:00 +6°C° 0 mm 0 mps 596 mmHg 33%
    09:00 +7°C° 0 mm 0 mps 596 mmHg 29%
    10:00 +8°C° 0 mm 0 mps 597 mmHg 25%
    11:00 +11°C° 0 mm 1 mps 598 mmHg 21%
    12:00 +11°C° 0 mm 1 mps 597 mmHg 21%
    13:00 +11°C° 0 mm 1 mps 597 mmHg 21%
    14:00 +12°C° 0 mm 1 mps 597 mmHg 21%
    15:00 +11°C° 0 mm 1 mps 597 mmHg 26%
    16:00 +11°C° 0 mm 1 mps 596 mmHg 32%
    17:00 +10°C° 0 mm 1 mps 596 mmHg 37%
    18:00 +8°C° 0.1 mm 2 mps 597 mmHg 48%
    19:00 +7°C° 0.1 mm 2 mps 597 mmHg 59%
    20:00 +6°C° 0.1 mm 2 mps 597 mmHg 69%
    21:00 +5°C° 0.4 mm 2 mps 597 mmHg 77%
    22:00 +6°C° 0.4 mm 1 mps 597 mmHg 84%
    23:00 +5°C° 0.4 mm 1 mps 597 mmHg 91%

    21 November, Thursday

    Time Temperature Precipitation Wind Pressure Humidity
    00:00 +5°C° 0.2 mm 1 mps 596 mmHg 92%
    01:00 +5°C° 0.2 mm 1 mps 596 mmHg 92%
    02:00 +5°C° 0.2 mm 1 mps 596 mmHg 93%
    03:00 +5°C° 0.3 mm 1 mps 596 mmHg 93%
    04:00 +5°C° 0.3 mm 1 mps 596 mmHg 94%
    05:00 +4°C° 0.3 mm 1 mps 596 mmHg 94%
    06:00 +5°C° 0.2 mm 1 mps 596 mmHg 93%
    07:00 +5°C° 0.2 mm 1 mps 596 mmHg 92%
    08:00 +5°C° 0.2 mm 1 mps 597 mmHg 91%
    09:00 +5°C° 0.3 mm 1 mps 597 mmHg 91%
    10:00 +5°C° 0.3 mm 1 mps 597 mmHg 91%
    11:00 +5°C° 0.3 mm 1 mps 597 mmHg 91%
    12:00 +5°C° 0.6 mm 1 mps 596 mmHg 93%
    13:00 +5°C° 0.6 mm 1 mps 596 mmHg 94%
    14:00 +5°C° 0.6 mm 1 mps 595 mmHg 95%
    15:00 +5°C° 0.4 mm 1 mps 595 mmHg 95%
    16:00 +5°C° 0.4 mm 1 mps 595 mmHg 96%
    17:00 +5°C° 0.4 mm 1 mps 595 mmHg 96%
    18:00 +5°C° 0.7 mm 1 mps 596 mmHg 96%
    19:00 +5°C° 0.7 mm 1 mps 596 mmHg 95%
    20:00 +5°C° 0.7 mm 1 mps 596 mmHg 95%
    21:00 +5°C° 0.7 mm 1 mps 596 mmHg 95%
    22:00 +5°C° 0.7 mm 1 mps 596 mmHg 94%
    23:00 +5°C° 0.7 mm 1 mps 596 mmHg 94%

    22 November, Friday

    Time Temperature Precipitation Wind Pressure Humidity
    00:00 +5°C° 0.7 mm 1 mps 596 mmHg 94%
    01:00 +5°C° 0.7 mm 1 mps 596 mmHg 95%
    02:00 +5°C° 0.7 mm 1 mps 595 mmHg 95%
    03:00 +5°C° 0.7 mm 1 mps 595 mmHg 95%
    04:00 +5°C° 0.7 mm 1 mps 595 mmHg 94%
    05:00 +5°C° 0.7 mm 1 mps 595 mmHg 94%
    06:00 +5°C° 0.9 mm 1 mps 595 mmHg 94%
    07:00 +5°C° 0.9 mm 1 mps 596 mmHg 95%
    08:00 +4°C° 0.9 mm 1 mps 596 mmHg 95%
    09:00 +5°C° 0.9 mm 1 mps 596 mmHg 95%
    10:00 +5°C° 0.9 mm 1 mps 596 mmHg 96%
    11:00 +5°C° 0.9 mm 1 mps 596 mmHg 97%
    12:00 +5°C° 0.8 mm 1 mps 596 mmHg 97%
    13:00 +5°C° 0.8 mm 1 mps 595 mmHg 97%
    14:00 +5°C° 0.8 mm 1 mps 595 mmHg 97%
    15:00 +5°C° 0.6 mm 1 mps 595 mmHg 97%
    16:00 +5°C° 0.6 mm 1 mps 595 mmHg 97%
    17:00 +5°C° 0.6 mm 1 mps 595 mmHg 97%
    18:00 +5°C° 0.4 mm 1 mps 595 mmHg 97%
    19:00 +5°C° 0.4 mm 1 mps 596 mmHg 97%
    20:00 +5°C° 0.4 mm 1 mps 596 mmHg 97%
    21:00 +5°C° 0.3 mm 1 mps 596 mmHg 96%
    22:00 +5°C° 0.3 mm 1 mps 597 mmHg 96%
    23:00 +5°C° 0.3 mm 1 mps 597 mmHg 96%

    23 November, Saturday

    Time Temperature Precipitation Wind Pressure Humidity
    00:00 +5°C° 0.2 mm 1 mps 597 mmHg 95%
    01:00 +4°C° 0.2 mm 1 mps 597 mmHg 94%
    02:00 +4°C° 0.2 mm 1 mps 597 mmHg 94%
    03:00 +4°C° 0.1 mm 1 mps 597 mmHg 92%
    04:00 +3°C° 0.1 mm 1 mps 597 mmHg 91%
    05:00 +2°C° 0.1 mm 0 mps 597 mmHg 90%
    06:00 +3°C° 0 mm 1 mps 597 mmHg 88%
    07:00 +3°C° 0 mm 1 mps 597 mmHg 86%
    08:00 +3°C° 0 mm 1 mps 598 mmHg 84%
    09:00 +3°C° 0 mm 1 mps 598 mmHg 82%
    10:00 +4°C° 0 mm 1 mps 598 mmHg 79%
    11:00 +5°C° 0 mm 1 mps 598 mmHg 76%
    12:00 +5°C° 0 mm 1 mps 598 mmHg 75%
    13:00 +6°C° 0 mm 1 mps 597 mmHg 74%
    14:00 +5°C° 0 mm 0 mps 597 mmHg 72%
    15:00 +6°C° 0 mm 1 mps 597 mmHg 71%
    16:00 +5°C° 0 mm 1 mps 597 mmHg 71%
    17:00 +5°C° 0 mm 1 mps 597 mmHg 70%
    18:00 +4°C° 0 mm 1 mps 597 mmHg 71%
    19:00 +4°C° 0 mm 1 mps 597 mmHg 73%
    20:00 +3°C° 0 mm 1 mps 597 mmHg 75%
    21:00 +3°C° 0 mm 1 mps 597 mmHg 75%
    22:00 +3°C° 0 mm 1 mps 597 mmHg 74%
    23:00 +2°C° 0 mm 1 mps 597 mmHg 74%
    Show more